Casa Grande, AZ

12:24 PM MST on February 23, 2018 (GMT -0700)
Casa Grande Municipal

Weather History for KCGZ - November, 2012

Change the Weather History Date:

Monday, November 5, 2012

  Actual Average Record
Temperature  
Mean Temperature 68 °F -  
Max Temperature 87 °F 74 °F 89 °F (2007)
Min Temperature 50 °F 47 °F 39 °F (2002)
Cooling Degree Days 4    
Growing Degree Days 18 (Base 50)    
Moisture  
Dew Point 26 °F    
Average Humidity 23    
Maximum Humidity 38    
Minimum Humidity 11    
Precipitation  
Precipitation 0.00 in - - ()
Sea Level Pressure  
Sea Level Pressure 30.07 in    
Wind  
Wind Speed 0 mph (WNW)    
Max Wind Speed 4 mph    
Max Gust Speed -    
Visibility 10 miles    
Events      
Averages and records for this station are not official NWS values.
T = Trace of Precipitation, MM = Missing Value Source: NWS Daily Summary

Daily Weather History Graph

Daily Weather History Graph

Search for Another Location

Airport or City:

Trip Planner

Search our weather history database for the weather conditions in past years. The results will help you decide how hot, cold, wet, or windy it might be!

Date:

Astronomy

Nov. 05, 2012 Rise Set
Actual Time 6:49 AM MST 5:31 PM MST
Civil Twilight 6:23 AM MST 5:57 PM MST
Nautical Twilight 5:53 AM MST 6:27 PM MST
Astronomical Twilight 5:24 AM MST 6:56 PM MST
Moon 11:12 PM MST (11/5) 12:10 PM MST (11/5)
Length of Visible Light 11h 34m
Length of Day
10h 42m
Waning Gibbous, 62% of the Moon is Illuminated
Nov 5
Waning Gibbous
Nov 6
Last Quarter
Nov 13
New
Nov 20
First Quarter
Nov 28
Full

Hourly Weather History & Observations

Time (MST) Temp. Dew Point Humidity Pressure Visibility Wind Dir Wind Speed Gust Speed Precip Events Conditions
12:15 AM 60.8 °F 26.6 °F 27% 30.08 in 10.0 mi Calm Calm - N/A   Clear
12:35 AM 60.8 °F 26.6 °F 27% 30.09 in 10.0 mi Calm Calm - N/A   Clear
12:55 AM 60.8 °F 26.6 °F 27% 30.09 in 10.0 mi Calm Calm - N/A   Clear
1:15 AM 60.8 °F 28.4 °F 29% 30.09 in 10.0 mi Calm Calm - N/A   Clear
1:35 AM 57.2 °F 28.4 °F 33% 30.08 in 10.0 mi Calm Calm - N/A   Clear
1:55 AM 57.2 °F 26.6 °F 31% 30.08 in 10.0 mi Calm Calm - N/A   Clear
2:15 AM 55.4 °F 24.8 °F 31% 30.08 in 10.0 mi Calm Calm - N/A   Clear
2:35 AM 55.4 °F 26.6 °F 33% 30.08 in 10.0 mi Calm Calm - N/A   Clear
2:55 AM 55.4 °F 26.6 °F 33% 30.08 in 10.0 mi Calm Calm - N/A   Clear
3:15 AM 53.6 °F 26.6 °F 35% 30.07 in 10.0 mi Calm Calm - N/A   Clear
3:35 AM 55.4 °F 26.6 °F 33% 30.07 in 10.0 mi Calm Calm - N/A   Clear
3:55 AM 53.6 °F 26.6 °F 35% 30.07 in 10.0 mi Calm Calm - N/A   Clear
4:15 AM 53.6 °F 26.6 °F 35% 30.07 in 10.0 mi Calm Calm - N/A   Clear
4:35 AM 53.6 °F 26.6 °F 35% 30.08 in 10.0 mi Calm Calm - N/A   Clear
4:55 AM 53.6 °F 24.8 °F 33% 30.08 in 10.0 mi Calm Calm - N/A   Clear
5:15 AM 53.6 °F 26.6 °F 35% 30.09 in 10.0 mi Calm Calm - N/A   Clear
5:35 AM 50.0 °F 24.8 °F 37% 30.09 in 10.0 mi Calm Calm - N/A   Clear
5:55 AM 51.8 °F 26.6 °F 38% 30.09 in 10.0 mi Calm Calm - N/A   Clear
6:15 AM 51.8 °F 26.6 °F 38% 30.10 in 10.0 mi Calm Calm - N/A   Clear
6:35 AM 51.8 °F 26.6 °F 38% 30.10 in 10.0 mi Calm Calm - N/A   Clear
6:55 AM 51.8 °F 26.6 °F 38% 30.11 in 10.0 mi Calm Calm - N/A   Clear
7:15 AM 51.8 °F 26.6 °F 38% 30.11 in 10.0 mi Calm Calm - N/A   Clear
7:35 AM 55.4 °F 28.4 °F 36% 30.12 in 10.0 mi Calm Calm - N/A   Clear
7:55 AM 55.4 °F 28.4 °F 36% 30.12 in 10.0 mi Calm Calm - N/A   Clear
8:15 AM 57.2 °F 28.4 °F 33% 30.13 in 10.0 mi Calm Calm - N/A   Clear
8:35 AM 60.8 °F 30.2 °F 31% 30.14 in 10.0 mi Calm Calm - N/A   Clear
8:55 AM 62.6 °F 30.2 °F 30% 30.14 in 10.0 mi Calm Calm - N/A   Clear
9:15 AM 66.2 °F 30.2 °F 26% 30.14 in 10.0 mi Calm Calm - N/A   Clear
9:35 AM 68.0 °F 30.2 °F 24% 30.14 in 10.0 mi Calm Calm - N/A   Clear
9:55 AM 69.8 °F 30.2 °F 23% 30.13 in 10.0 mi Calm Calm - N/A   Clear
10:15 AM 71.6 °F 30.2 °F 22% 30.13 in 10.0 mi Calm Calm - N/A   Clear
10:35 AM 71.6 °F 30.2 °F 22% 30.13 in 10.0 mi Calm Calm - N/A   Clear
10:55 AM 75.2 °F 32.0 °F 21% 30.12 in 10.0 mi Calm Calm - N/A   Clear
11:15 AM 75.2 °F 32.0 °F 21% 30.12 in 10.0 mi Calm Calm - N/A   Clear
11:35 AM 77.0 °F 32.0 °F 19% 30.11 in 10.0 mi Calm Calm - N/A   Clear
11:55 AM 78.8 °F 32.0 °F 18% 30.10 in 10.0 mi Calm Calm - N/A   Clear
12:15 PM 80.6 °F 30.2 °F 16% 30.09 in 10.0 mi Calm Calm - N/A   Clear
12:35 PM 82.4 °F 30.2 °F 15% 30.07 in 10.0 mi Calm Calm - N/A   Clear
12:55 PM 82.4 °F 28.4 °F 14% 30.06 in 10.0 mi Calm Calm - N/A   Clear
1:15 PM 84.2 °F 28.4 °F 13% 30.05 in 10.0 mi Calm Calm - N/A   Clear
1:35 PM 84.2 °F 26.6 °F 12% 30.04 in 10.0 mi Calm Calm - N/A   Clear
1:55 PM 84.2 °F 26.6 °F 12% 30.04 in 10.0 mi Calm Calm - N/A   Clear
2:15 PM 86.0 °F 26.6 °F 12% 30.03 in 10.0 mi Calm Calm - N/A   Clear
2:55 PM 86.0 °F 28.4 °F 12% 30.02 in 10.0 mi West 3.5 mph - N/A   Clear
3:15 PM 86.0 °F 28.4 °F 12% 30.02 in 10.0 mi West 3.5 mph - N/A   Clear
3:35 PM 87.8 °F 28.4 °F 12% 30.02 in 10.0 mi Calm Calm - N/A   Clear
3:55 PM 87.8 °F 26.6 °F 11% 30.02 in 10.0 mi Calm Calm - N/A   Clear
4:15 PM 87.8 °F 26.6 °F 11% 30.02 in 10.0 mi NNW 3.5 mph - N/A   Clear
4:35 PM 87.8 °F 26.6 °F 11% 30.01 in 10.0 mi Calm Calm - N/A   Clear
4:55 PM 86.0 °F 26.6 °F 12% 30.01 in 10.0 mi Calm Calm - N/A   Clear
5:15 PM 84.2 °F 24.8 °F 11% 30.01 in 10.0 mi Calm Calm - N/A   Clear
5:35 PM 80.6 °F 24.8 °F 13% 30.01 in 10.0 mi Calm Calm - N/A   Clear
5:55 PM 78.8 °F 24.8 °F 14% 30.02 in 10.0 mi Calm Calm - N/A   Clear
6:15 PM 77.0 °F 24.8 °F 14% 30.02 in 10.0 mi Calm Calm - N/A   Clear
6:35 PM 73.4 °F 21.2 °F 14% 30.02 in 10.0 mi Calm Calm - N/A   Clear
6:55 PM 73.4 °F 21.2 °F 14% 30.02 in 10.0 mi Calm Calm - N/A   Clear
7:15 PM 71.6 °F 23.0 °F 16% 30.03 in 10.0 mi Calm Calm - N/A   Clear
7:35 PM 71.6 °F 21.2 °F 15% 30.03 in 10.0 mi Calm Calm - N/A   Clear
7:55 PM 73.4 °F 23.0 °F 15% 30.03 in 10.0 mi Calm Calm - N/A   Clear
8:15 PM 69.8 °F 21.2 °F 16% 30.03 in 10.0 mi Calm Calm - N/A   Clear
8:35 PM 66.2 °F 19.4 °F 17% 30.04 in 10.0 mi Calm Calm - N/A   Clear
8:55 PM 66.2 °F 21.2 °F 18% 30.04 in 10.0 mi Calm Calm - N/A   Clear
9:15 PM 66.2 °F 19.4 °F 17% 30.04 in 10.0 mi Calm Calm - N/A   Clear
9:35 PM 62.6 °F 19.4 °F 19% 30.05 in 10.0 mi Calm Calm - N/A   Clear
9:55 PM 62.6 °F 19.4 °F 19% 30.05 in 10.0 mi Calm Calm - N/A   Clear
10:15 PM 60.8 °F 19.4 °F 20% 30.05 in 10.0 mi Calm Calm - N/A   Clear
10:35 PM 60.8 °F 19.4 °F 20% 30.05 in 10.0 mi Calm Calm - N/A   Clear
11:15 PM 59.0 °F 21.2 °F 23% 30.05 in 10.0 mi Calm Calm - N/A   Clear
11:35 PM 59.0 °F 21.2 °F 23% 30.05 in 10.0 mi Calm Calm - N/A   Clear
11:55 PM 55.4 °F 19.4 °F 25% 30.05 in 10.0 mi Calm Calm - N/A   Clear